Spokane Fairchild, WA
on Tuesday, January 1, 2013

Tuesday
Previous Day Next Day
Daily Summary
 ActualAverage (KGEG)Record (KGEG)
Temperature
Mean Temperature °F / °C 27°F / -3°C  
Max Temperature 23°F / -5°C 32°F / 0°C 62°F / 16°C (1918)
Min Temperature 10°F / -12°C 22°F / -6°C -22°F / -30°C (1979)
Degree Days
Heating Degree Days 48 38  
Month to date heating degree days 38  
Since 1 July heating degree days 2872  
Cooling Degree Days 0 0  
Month to date cooling degree days 0  
Year to date cooling degree days 0  
Moisture
Dew Point 20°F / -7°C   
Average Humidity 100    
Maximum Humidity 100    
Minimum Humidity 100    
Precipitation
Precipitation 0.00 in / 0.00 cm 0.06 in / 1.52 cm 0.84 in / 2.13 cm (1994)
Month to date precipitation 0.06  
Year to date precipitation 0.06  
Snow
Snow 0.00 in / 0.00 cm 0.50 in / 1.27 cm 8.00 in / 20.32 cm (1899)
Month to date snowfall 0.5  
Since 1 July snowfall 22.6  
Snow Depth in / cm   
Wind
Wind Speed 4 mph / 6 km/h   
Max Wind Speed 10 mph / 16 km/h   
Max Gust Speed mph / km/h   
Visibility 10 miles / 16 kilometers   
Events Snow   

Key: T is trace of precipitation, MM is missing value
Source: NWS Daily Summary
Time(PST)TemperatureDew PointHumidity Pressure Visibility Wind DirectionWind SpeedGust SpeedPrecipitationEvents Conditions
12:50 AM 10.4°F / -12.0°C 10.4°F / -12.0°C 100% 30.38 in / 1028.7 hPa 10.0 miles / 16.1 kilometers South 3.5 mph / 5.6 km/h - N/A Snow Light Snow
12:58 AM 11.5°F / -11.4°C 11.5°F / -11.4°C 100% 30.51 in / 1032.9 hPa 10.0 miles / 16.1 kilometers South 4.6 mph / 7.4 km/h - 0.00 in / 0.0 cm Snow Light Snow
1:00 AM 12.2°F / -11.0°C 12.2°F / -11.0°C 100% 30.37 in / 1028.3 hPa 10.0 miles / 16.1 kilometers SSE 4.6 mph / 7.4 km/h - N/A   Mostly Cloudy
1:10 AM 12.2°F / -11.0°C 12.2°F / -11.0°C 100% 30.37 in / 1028.3 hPa 10.0 miles / 16.1 kilometers SSE 5.8 mph / 9.3 km/h - N/A   Scattered Clouds
1:30 AM 15.8°F / -9.0°C 15.8°F / -9.0°C 100% 30.37 in / 1028.3 hPa 10.0 miles / 16.1 kilometers South 2.3 mph / 3.7 km/h - N/A   Mostly Cloudy
1:58 AM 16.7°F / -8.5°C 16.7°F / -8.5°C 100% 30.52 in / 1033.4 hPa 10.0 miles / 16.1 kilometers SW 2.3 mph / 3.7 km/h - 0.00 in / 0.0 cm   Overcast
2:30 AM 15.8°F / -9.0°C 15.8°F / -9.0°C 100% 30.41 in / 1029.7 hPa 10.0 miles / 16.1 kilometers SSW 4.6 mph / 7.4 km/h - N/A Snow Light Snow
2:47 AM 12.2°F / -11.0°C 12.2°F / -11.0°C 100% 30.42 in / 1030.0 hPa 10.0 miles / 16.1 kilometers WSW 3.5 mph / 5.6 km/h - N/A   Overcast
2:53 AM 12.2°F / -11.0°C 12.2°F / -11.0°C 100% 30.43 in / 1030.4 hPa 10.0 miles / 16.1 kilometers West 3.5 mph / 5.6 km/h - N/A   Overcast
2:58 AM 12.6°F / -10.8°C 12.6°F / -10.8°C 100% 30.55 in / 1034.3 hPa 10.0 miles / 16.1 kilometers West 4.6 mph / 7.4 km/h - 0.00 in / 0.0 cm   Overcast
3:18 AM 14.0°F / -10.0°C 14.0°F / -10.0°C 100% 30.42 in / 1030.0 hPa 10.0 miles / 16.1 kilometers South 4.6 mph / 7.4 km/h - N/A Snow Light Snow
3:28 AM 14.0°F / -10.0°C 14.0°F / -10.0°C 100% 30.42 in / 1030.0 hPa 10.0 miles / 16.1 kilometers SSW 2.3 mph / 3.7 km/h - N/A   Overcast
3:58 AM 15.4°F / -9.2°C 15.4°F / -9.2°C 100% 30.56 in / 1034.7 hPa 10.0 miles / 16.1 kilometers WSW 6.9 mph / 11.1 km/h - 0.00 in / 0.0 cm   Overcast
4:58 AM 20.5°F / -6.4°C 20.5°F / -6.4°C 100% 30.56 in / 1034.8 hPa 10.0 miles / 16.1 kilometers WSW 8.1 mph / 13.0 km/h - N/A   Overcast
5:58 AM 19.9°F / -6.7°C 19.9°F / -6.7°C 100% 30.58 in / 1035.4 hPa 10.0 miles / 16.1 kilometers WSW 4.6 mph / 7.4 km/h - N/A   Overcast
6:13 AM 21.2°F / -6.0°C 21.2°F / -6.0°C 100% 30.45 in / 1031.0 hPa 10.0 miles / 16.1 kilometers WSW 5.8 mph / 9.3 km/h - N/A   Overcast
6:43 AM 21.2°F / -6.0°C 21.2°F / -6.0°C 100% 30.44 in / 1030.7 hPa 10.0 miles / 16.1 kilometers West 4.6 mph / 7.4 km/h - N/A   Overcast
6:58 AM 20.5°F / -6.4°C 20.5°F / -6.4°C 100% 30.58 in / 1035.4 hPa 10.0 miles / 16.1 kilometers West 5.8 mph / 9.3 km/h - N/A   Overcast
7:33 AM 21.2°F / -6.0°C 21.2°F / -6.0°C 100% 30.45 in / 1031.0 hPa 10.0 miles / 16.1 kilometers WSW 3.5 mph / 5.6 km/h - N/A Snow Light Snow
7:46 AM 21.2°F / -6.0°C 21.2°F / -6.0°C 100% 30.46 in / 1031.4 hPa 10.0 miles / 16.1 kilometers SSW 5.8 mph / 9.3 km/h - N/A   Overcast
7:56 AM 21.2°F / -6.0°C 21.2°F / -6.0°C 100% 30.47 in / 1031.7 hPa 10.0 miles / 16.1 kilometers WSW 9.2 mph / 14.8 km/h - N/A   Overcast
7:58 AM 20.8°F / -6.2°C 20.8°F / -6.2°C 100% 30.61 in / 1036.3 hPa 10.0 miles / 16.1 kilometers WSW 10.4 mph / 16.7 km/h - 0.00 in / 0.0 cm   Overcast
7:59 AM 21.2°F / -6.0°C 21.2°F / -6.0°C 100% 30.47 in / 1031.7 hPa 10.0 miles / 16.1 kilometers WSW 10.4 mph / 16.7 km/h - N/A Snow Light Snow
8:36 AM 21.2°F / -6.0°C 21.2°F / -6.0°C 100% 30.48 in / 1032.1 hPa 10.0 miles / 16.1 kilometers WSW 6.9 mph / 11.1 km/h - N/A   Overcast
8:44 AM 21.2°F / -6.0°C 21.2°F / -6.0°C 100% 30.48 in / 1032.1 hPa 10.0 miles / 16.1 kilometers WSW 3.5 mph / 5.6 km/h - N/A Snow Light Snow
8:57 AM 21.2°F / -6.0°C 21.2°F / -6.0°C 100% 30.49 in / 1032.4 hPa 10.0 miles / 16.1 kilometers WSW 4.6 mph / 7.4 km/h - N/A   Overcast
8:58 AM 21.2°F / -6.0°C 21.2°F / -6.0°C 100% 30.62 in / 1036.7 hPa 10.0 miles / 16.1 kilometers WSW 4.6 mph / 7.4 km/h - 0.00 in / 0.0 cm   Overcast
9:05 AM 21.2°F / -6.0°C 21.2°F / -6.0°C 100% 30.49 in / 1032.4 hPa 10.0 miles / 16.1 kilometers SW 5.8 mph / 9.3 km/h - N/A Snow Light Snow
9:27 AM 21.2°F / -6.0°C 21.2°F / -6.0°C 100% 30.50 in / 1032.7 hPa 10.0 miles / 16.1 kilometers SW 4.6 mph / 7.4 km/h - N/A   Overcast
9:29 AM 21.2°F / -6.0°C 21.2°F / -6.0°C 100% 30.50 in / 1032.7 hPa 10.0 miles / 16.1 kilometers SW 4.6 mph / 7.4 km/h - N/A Snow Light Snow
9:30 AM 21.2°F / -6.0°C 21.2°F / -6.0°C 100% 30.50 in / 1032.7 hPa 10.0 miles / 16.1 kilometers SW 5.8 mph / 9.3 km/h - N/A   Overcast
9:42 AM 21.2°F / -6.0°C 21.2°F / -6.0°C 100% 30.51 in / 1033.1 hPa 10.0 miles / 16.1 kilometers WSW 6.9 mph / 11.1 km/h - N/A Snow Light Snow
9:43 AM 21.2°F / -6.0°C 21.2°F / -6.0°C 100% 30.51 in / 1033.1 hPa 10.0 miles / 16.1 kilometers WSW 8.1 mph / 13.0 km/h - N/A Snow Light Snow
9:58 AM 21.4°F / -5.9°C 21.4°F / -5.9°C 100% 30.65 in / 1037.8 hPa 10.0 miles / 16.1 kilometers WSW 6.9 mph / 11.1 km/h - 0.00 in / 0.0 cm Snow Light Snow
9:59 AM 21.2°F / -6.0°C 21.2°F / -6.0°C 100% 30.51 in / 1033.1 hPa 10.0 miles / 16.1 kilometers WSW 6.9 mph / 11.1 km/h - N/A   Overcast
10:06 AM 21.2°F / -6.0°C 21.2°F / -6.0°C 100% 30.51 in / 1033.1 hPa 10.0 miles / 16.1 kilometers SSW 8.1 mph / 13.0 km/h - N/A Snow Light Snow
10:16 AM 21.2°F / -6.0°C 21.2°F / -6.0°C 100% 30.51 in / 1033.1 hPa 10.0 miles / 16.1 kilometers SSW 5.8 mph / 9.3 km/h - N/A Snow Light Snow
10:43 AM 21.2°F / -6.0°C 21.2°F / -6.0°C 100% 30.51 in / 1033.1 hPa 10.0 miles / 16.1 kilometers WSW 9.2 mph / 14.8 km/h - N/A   Overcast
10:58 AM 21.6°F / -5.8°C 21.6°F / -5.8°C 100% 30.64 in / 1037.6 hPa 10.0 miles / 16.1 kilometers West 6.9 mph / 11.1 km/h - 0.00 in / 0.0 cm   Overcast
11:58 AM 21.7°F / -5.7°C 21.7°F / -5.7°C 100% 30.64 in / 1037.5 hPa 10.0 miles / 16.1 kilometers West 6.9 mph / 11.1 km/h - N/A   Overcast
12:04 PM 21.2°F / -6.0°C 21.2°F / -6.0°C 100% 30.50 in / 1032.7 hPa 10.0 miles / 16.1 kilometers West 6.9 mph / 11.1 km/h - N/A   Overcast
12:13 PM 21.2°F / -6.0°C 21.2°F / -6.0°C 100% 30.50 in / 1032.7 hPa 10.0 miles / 16.1 kilometers West 6.9 mph / 11.1 km/h - N/A   Overcast
12:23 PM 21.2°F / -6.0°C 21.2°F / -6.0°C 100% 30.51 in / 1033.1 hPa 10.0 miles / 16.1 kilometers West 5.8 mph / 9.3 km/h - N/A   Overcast
12:58 PM 21.9°F / -5.6°C 21.9°F / -5.6°C 100% 30.64 in / 1037.6 hPa 10.0 miles / 16.1 kilometers NW 3.5 mph / 5.6 km/h - 0.00 in / 0.0 cm   Overcast
1:13 PM 23.0°F / -5.0°C 23.0°F / -5.0°C 100% 30.51 in / 1033.1 hPa 10.0 miles / 16.1 kilometers North - - N/A   Overcast
1:22 PM 21.2°F / -6.0°C 21.2°F / -6.0°C 100% 30.51 in / 1033.1 hPa 10.0 miles / 16.1 kilometers Calm Calm - N/A   Overcast
1:32 PM 21.2°F / -6.0°C 21.2°F / -6.0°C 100% 30.51 in / 1033.1 hPa 10.0 miles / 16.1 kilometers Calm Calm - N/A   Overcast
1:58 PM 21.9°F / -5.6°C 21.9°F / -5.6°C 100% 30.63 in / 1037.1 hPa 10.0 miles / 16.1 kilometers Calm Calm - 0.00 in / 0.0 cm   Overcast
2:04 PM 21.2°F / -6.0°C 21.2°F / -6.0°C 100% 30.51 in / 1033.1 hPa 10.0 miles / 16.1 kilometers Calm Calm - N/A   Overcast
2:33 PM 21.2°F / -6.0°C 21.2°F / -6.0°C 100% 30.50 in / 1032.7 hPa 10.0 miles / 16.1 kilometers SE 3.5 mph / 5.6 km/h - N/A   Overcast
2:44 PM 21.2°F / -6.0°C 21.2°F / -6.0°C 100% 30.51 in / 1033.1 hPa 10.0 miles / 16.1 kilometers ESE 3.5 mph / 5.6 km/h - N/A   Overcast
2:58 PM 21.7°F / -5.7°C 21.7°F / -5.7°C 100% 30.64 in / 1037.6 hPa 10.0 miles / 16.1 kilometers ESE 3.5 mph / 5.6 km/h - 0.00 in / 0.0 cm   Overcast
3:09 PM 21.2°F / -6.0°C 21.2°F / -6.0°C 100% 30.50 in / 1032.7 hPa 10.0 miles / 16.1 kilometers SE 3.5 mph / 5.6 km/h - N/A   Overcast
3:29 PM 21.2°F / -6.0°C 21.2°F / -6.0°C 100% 30.51 in / 1033.1 hPa 10.0 miles / 16.1 kilometers Calm Calm - N/A   Overcast
3:34 PM 21.2°F / -6.0°C 21.2°F / -6.0°C 100% 30.51 in / 1033.1 hPa 10.0 miles / 16.1 kilometers Calm Calm - N/A   Overcast
3:58 PM 21.7°F / -5.7°C 21.7°F / -5.7°C 100% 30.65 in / 1037.8 hPa 10.0 miles / 16.1 kilometers SSW 2.3 mph / 3.7 km/h - 0.00 in / 0.0 cm   Overcast
4:58 PM 21.7°F / -5.7°C 21.7°F / -5.7°C 100% 30.64 in / 1037.6 hPa 10.0 miles / 16.1 kilometers SW 2.3 mph / 3.7 km/h - N/A   Overcast
5:32 PM 21.2°F / -6.0°C 21.2°F / -6.0°C 100% 30.51 in / 1033.1 hPa 10.0 miles / 16.1 kilometers North 1.2 mph / 1.9 km/h - N/A   Overcast
5:42 PM 21.2°F / -6.0°C 21.2°F / -6.0°C 100% 30.51 in / 1033.1 hPa 10.0 miles / 16.1 kilometers West 1.2 mph / 1.9 km/h - N/A   Overcast
5:46 PM 21.2°F / -6.0°C 21.2°F / -6.0°C 100% 30.51 in / 1033.1 hPa 10.0 miles / 16.1 kilometers Calm Calm - N/A   Overcast
5:58 PM 21.6°F / -5.8°C 21.6°F / -5.8°C 100% 30.64 in / 1037.6 hPa 10.0 miles / 16.1 kilometers Calm Calm - 0.00 in / 0.0 cm   Overcast
6:53 PM 21.2°F / -6.0°C 21.2°F / -6.0°C 100% 30.51 in / 1033.1 hPa 10.0 miles / 16.1 kilometers East 4.6 mph / 7.4 km/h - N/A   Overcast
6:58 PM 21.6°F / -5.8°C 21.6°F / -5.8°C 100% 30.64 in / 1037.6 hPa 10.0 miles / 16.1 kilometers East 3.5 mph / 5.6 km/h - 0.00 in / 0.0 cm   Overcast
7:08 PM 21.2°F / -6.0°C 21.2°F / -6.0°C 100% 30.52 in / 1033.4 hPa 10.0 miles / 16.1 kilometers ENE 2.3 mph / 3.7 km/h - N/A   Overcast
7:17 PM 21.2°F / -6.0°C 21.2°F / -6.0°C 100% 30.52 in / 1033.4 hPa 10.0 miles / 16.1 kilometers East 2.3 mph / 3.7 km/h - N/A   Overcast
7:28 PM 21.2°F / -6.0°C 21.2°F / -6.0°C 100% 30.52 in / 1033.4 hPa 10.0 miles / 16.1 kilometers NE 2.3 mph / 3.7 km/h - N/A   Overcast
7:45 PM 21.2°F / -6.0°C 21.2°F / -6.0°C 100% 30.52 in / 1033.4 hPa 10.0 miles / 16.1 kilometers NNE 2.3 mph / 3.7 km/h - N/A   Overcast
7:54 PM 21.2°F / -6.0°C 21.2°F / -6.0°C 100% 30.52 in / 1033.4 hPa 10.0 miles / 16.1 kilometers East 2.3 mph / 3.7 km/h - N/A   Overcast
7:58 PM 21.4°F / -5.9°C 21.4°F / -5.9°C 100% 30.64 in / 1037.6 hPa 10.0 miles / 16.1 kilometers ENE 2.3 mph / 3.7 km/h - 0.00 in / 0.0 cm   Overcast
8:03 PM 21.2°F / -6.0°C 21.2°F / -6.0°C 100% 30.52 in / 1033.4 hPa 10.0 miles / 16.1 kilometers Variable 2.3 mph / 3.7 km/h - N/A   Overcast
8:41 PM 21.2°F / -6.0°C 21.2°F / -6.0°C 100% 30.52 in / 1033.4 hPa 10.0 miles / 16.1 kilometers Calm Calm - N/A   Overcast
8:47 PM 21.2°F / -6.0°C 21.2°F / -6.0°C 100% 30.52 in / 1033.4 hPa 10.0 miles / 16.1 kilometers Calm Calm - N/A   Overcast
8:56 PM 21.2°F / -6.0°C 21.2°F / -6.0°C 100% 30.53 in / 1033.7 hPa 10.0 miles / 16.1 kilometers North 2.3 mph / 3.7 km/h - N/A   Overcast
8:58 PM 21.2°F / -6.0°C 21.2°F / -6.0°C 100% 30.65 in / 1037.9 hPa 10.0 miles / 16.1 kilometers North 2.3 mph / 3.7 km/h - 0.00 in / 0.0 cm   Overcast
9:13 PM 21.2°F / -6.0°C 21.2°F / -6.0°C 100% 30.53 in / 1033.7 hPa 10.0 miles / 16.1 kilometers NNE 3.5 mph / 5.6 km/h - N/A   Overcast
9:17 PM 21.2°F / -6.0°C 21.2°F / -6.0°C 100% 30.53 in / 1033.7 hPa 10.0 miles / 16.1 kilometers North 2.3 mph / 3.7 km/h - N/A   Overcast
9:44 PM 21.2°F / -6.0°C 21.2°F / -6.0°C 100% 30.52 in / 1033.4 hPa 10.0 miles / 16.1 kilometers East 5.8 mph / 9.3 km/h - N/A   Overcast
9:54 PM 21.2°F / -6.0°C 21.2°F / -6.0°C 100% 30.52 in / 1033.4 hPa 10.0 miles / 16.1 kilometers ENE 4.6 mph / 7.4 km/h - N/A   Overcast
9:58 PM 21.6°F / -5.8°C 21.6°F / -5.8°C 100% 30.64 in / 1037.6 hPa 10.0 miles / 16.1 kilometers NE 3.5 mph / 5.6 km/h - 0.00 in / 0.0 cm   Overcast
9:59 PM 21.2°F / -6.0°C 21.2°F / -6.0°C 100% 30.52 in / 1033.4 hPa 10.0 miles / 16.1 kilometers NE 3.5 mph / 5.6 km/h - N/A   Overcast
10:21 PM 21.2°F / -6.0°C 21.2°F / -6.0°C 100% 30.52 in / 1033.4 hPa 10.0 miles / 16.1 kilometers SE 2.3 mph / 3.7 km/h - N/A Snow Light Snow
10:31 PM 21.2°F / -6.0°C 21.2°F / -6.0°C 100% 30.52 in / 1033.4 hPa 10.0 miles / 16.1 kilometers ESE 3.5 mph / 5.6 km/h - N/A   Overcast
10:42 PM 21.2°F / -6.0°C 21.2°F / -6.0°C 100% 30.52 in / 1033.4 hPa 10.0 miles / 16.1 kilometers ESE 3.5 mph / 5.6 km/h - N/A Snow Light Snow
10:58 PM 21.6°F / -5.8°C 21.6°F / -5.8°C 100% 30.65 in / 1037.9 hPa 10.0 miles / 16.1 kilometers SW 1.2 mph / 1.9 km/h - 0.00 in / 0.0 cm Snow Light Snow
11:13 PM 21.2°F / -6.0°C 21.2°F / -6.0°C 100% 30.53 in / 1033.7 hPa 10.0 miles / 16.1 kilometers WSW 2.3 mph / 3.7 km/h - N/A Snow Light Snow
11:17 PM 21.2°F / -6.0°C 21.2°F / -6.0°C 100% 30.53 in / 1033.7 hPa 10.0 miles / 16.1 kilometers West 2.3 mph / 3.7 km/h - N/A   Overcast
11:58 PM 21.4°F / -5.9°C 21.4°F / -5.9°C 100% 30.65 in / 1037.9 hPa 10.0 miles / 16.1 kilometers North 3.5 mph / 5.6 km/h - 0.00 in / 0.0 cm   Overcast
Moon Phase
Jan. 01 Jan. 04 Jan. 11 Jan. 18 Jan. 26
Sunrise:07:38 AM (PST) Moon Rise:09:07 PM (PST)1/1
Sunset:04:10 PM (PST) Moon Set:09:34 AM (PST)1/1

Copyright © 2014 The Weather Underground, Inc.